User: anonymous   Login
Location: Albany
(35.0000°S, 118.0000°E)
Time: 01:34:38
(UTC-05:00)
Language:

ERS-1 Rocket - Orbit

View from above orbital plane
View from above orbital plane
View from above satellite
View from above satellite

Ground track
Ground track

The orbit data is extracted from the following two-line orbital elements,

1 21610U 91050F   15026.74843832  .00000298  00000-0  10831-3 0  7070
2 21610 098.7211 061.0198 0003460 044.2367 079.5815 14.40495536234492
Epoch (UTC): 26 January 2015 17:57:45
Eccentricity: 0.0003460
inclination: 98.7211°
perigee height: 754 km
apogee height: 759 km
right ascension of ascending node: 61.0198°
argument of perigee: 44.2367°
revolutions per day: 14.40495536
mean anomaly at epoch: 79.5815°
orbit number at epoch: 23449

The dashed part of the orbit path shows where the satellite is in the earth's shadow,  

DLR